Time,TemperatureF,DewpointF,PressureIn,WindDirection,WindDirectionDegrees,WindSpeedMPH,WindSpeedGustMPH,Humidity,HourlyPrecipIn,Conditions,Clouds,dailyrainin,SoftwareType,DateUTC
2015-08-03 00:01:00,73.8,48.6,28.46,NE,45,1.0,1.0,41,0.00,CLR,SKC,0.00,WeatherDisplay:10.37,2015-08-03 04:01:00,
2015-08-03 00:06:00,73.8,48.6,28.47,East,101,0.0,1.0,41,0.00,CLR,SKC,0.00,WeatherDisplay:10.37,2015-08-03 04:06:00,
2015-08-03 00:11:00,73.7,48.5,28.47,SSE,151,0.0,1.0,41,0.00,CLR,SKC,0.00,WeatherDisplay:10.37,2015-08-03 04:11:00,
2015-08-03 00:16:00,73.6,47.8,28.47,SSE,157,0.0,1.0,40,0.00,CLR,SKC,0.00,WeatherDisplay:10.37,2015-08-03 04:16:00,
2015-08-03 00:21:00,73.6,47.8,28.48,SSE,157,0.0,1.0,40,0.00,CLR,SKC,0.00,WeatherDisplay:10.37,2015-08-03 04:21:00,
2015-08-03 00:26:00,73.6,48.4,28.47,SE,132,0.0,1.0,41,0.00,CLR,SKC,0.00,WeatherDisplay:10.37,2015-08-03 04:26:00,
2015-08-03 00:31:00,73.4,47.6,28.43,ESE,112,0.0,1.0,40,0.00,CLR,SKC,0.00,WeatherDisplay:10.37,2015-08-03 04:31:00,
2015-08-03 00:36:00,73.2,48.1,28.42,ESE,112,0.0,1.0,41,0.00,CLR,SKC,0.00,WeatherDisplay:10.37,2015-08-03 04:36:00,
2015-08-03 00:41:00,73.2,47.4,28.43,ESE,112,0.0,1.0,40,0.00,CLR,SKC,0.00,WeatherDisplay:10.37,2015-08-03 04:41:00,
2015-08-03 00:46:00,73.0,47.9,28.43,ESE,112,0.0,1.0,41,0.00,CLR,SKC,0.00,WeatherDisplay:10.37,2015-08-03 04:46:00,
2015-08-03 00:51:00,73.0,47.2,28.43,ESE,112,0.0,1.0,40,0.00,CLR,SKC,0.00,WeatherDisplay:10.37,2015-08-03 04:51:00,
2015-08-03 00:56:00,72.7,47.6,28.43,ESE,112,0.0,1.0,41,0.00,CLR,SKC,0.00,WeatherDisplay:10.37,2015-08-03 04:56:00,
2015-08-03 01:01:00,72.7,47.0,28.43,ESE,112,0.0,1.0,40,0.00,CLR,SKC,0.00,WeatherDisplay:10.37,2015-08-03 05:01:00,
2015-08-03 01:06:00,72.6,47.6,28.44,ESE,112,0.0,1.0,41,0.00,CLR,SKC,0.00,WeatherDisplay:10.37,2015-08-03 05:06:00,
2015-08-03 01:11:00,72.5,47.5,28.44,ESE,112,0.0,0.0,41,0.00,CLR,SKC,0.00,WeatherDisplay:10.37,2015-08-03 05:11:00,
2015-08-03 01:16:00,72.3,47.3,28.44,ESE,112,0.0,0.0,41,0.00,CLR,SKC,0.00,WeatherDisplay:10.37,2015-08-03 05:16:00,
2015-08-03 01:21:00,72.1,47.1,28.44,ESE,112,0.0,0.0,41,0.00,CLR,SKC,0.00,WeatherDisplay:10.37,2015-08-03 05:21:00,
2015-08-03 01:26:00,72.1,47.1,28.44,ESE,112,0.0,0.0,41,0.00,CLR,SKC,0.00,WeatherDisplay:10.37,2015-08-03 05:26:00,
2015-08-03 01:31:00,72.0,47.0,28.44,ESE,112,0.0,0.0,41,0.00,CLR,SKC,0.00,WeatherDisplay:10.37,2015-08-03 05:31:00,
2015-08-03 01:36:00,71.9,46.9,28.45,ESE,112,0.0,0.0,41,0.00,CLR,SKC,0.00,WeatherDisplay:10.37,2015-08-03 05:36:00,
2015-08-03 01:41:00,71.8,46.8,28.44,ESE,112,0.0,0.0,41,0.00,CLR,SKC,0.00,WeatherDisplay:10.37,2015-08-03 05:41:00,
2015-08-03 01:46:00,71.7,46.8,28.44,ESE,112,0.0,0.0,41,0.00,CLR,SKC,0.00,WeatherDisplay:10.37,2015-08-03 05:46:00,
2015-08-03 01:51:00,71.6,46.6,28.44,ESE,112,0.0,0.0,41,0.00,CLR,SKC,0.00,WeatherDisplay:10.37,2015-08-03 05:51:00,
2015-08-03 01:56:00,71.4,47.1,28.43,ESE,112,0.0,0.0,42,0.00,CLR,SKC,0.00,WeatherDisplay:10.37,2015-08-03 05:56:00,
2015-08-03 02:01:00,71.4,46.5,28.44,ESE,112,0.0,0.0,41,0.00,CLR,SKC,0.00,WeatherDisplay:10.37,2015-08-03 06:01:00,
2015-08-03 02:06:00,71.2,46.3,28.43,ESE,112,0.0,0.0,41,0.00,CLR,SKC,0.00,WeatherDisplay:10.37,2015-08-03 06:06:00,
2015-08-03 02:11:00,71.1,46.2,28.44,ESE,112,0.0,0.0,41,0.00,CLR,SKC,0.00,WeatherDisplay:10.37,2015-08-03 06:11:00,
2015-08-03 02:16:00,71.1,46.2,28.44,ESE,112,0.0,0.0,41,0.00,CLR,SKC,0.00,WeatherDisplay:10.37,2015-08-03 06:16:00,
2015-08-03 02:21:00,70.9,46.0,28.45,ESE,112,0.0,0.0,41,0.00,CLR,SKC,0.00,WeatherDisplay:10.37,2015-08-03 06:21:00,
2015-08-03 02:26:00,70.9,46.0,28.45,ESE,112,0.0,0.0,41,0.00,CLR,SKC,0.00,WeatherDisplay:10.37,2015-08-03 06:26:00,
2015-08-03 02:31:00,70.9,46.0,28.45,ESE,112,0.0,0.0,41,0.00,CLR,SKC,0.00,WeatherDisplay:10.37,2015-08-03 06:31:00,
2015-08-03 02:36:00,70.7,46.5,28.45,ESE,112,0.0,0.0,42,0.00,CLR,SKC,0.00,WeatherDisplay:10.37,2015-08-03 06:36:00,
2015-08-03 02:41:00,70.7,45.8,28.44,ESE,112,0.0,0.0,41,0.00,CLR,SKC,0.00,WeatherDisplay:10.37,2015-08-03 06:41:00,
2015-08-03 02:46:00,70.6,46.4,28.45,ESE,112,0.0,0.0,42,0.00,CLR,SKC,0.00,WeatherDisplay:10.37,2015-08-03 06:46:00,
2015-08-03 02:51:00,70.5,46.3,28.44,ESE,112,0.0,0.0,42,0.00,CLR,SKC,0.00,WeatherDisplay:10.37,2015-08-03 06:51:00,
2015-08-03 02:56:00,70.5,45.7,28.44,ESE,112,0.0,0.0,41,0.00,CLR,SKC,0.00,WeatherDisplay:10.37,2015-08-03 06:56:00,
2015-08-03 03:01:00,70.3,46.2,28.44,ESE,112,0.0,0.0,42,0.00,CLR,SKC,0.00,WeatherDisplay:10.37,2015-08-03 07:01:00,
2015-08-03 03:06:00,70.3,45.5,28.44,ESE,112,0.0,0.0,41,0.00,CLR,SKC,0.00,WeatherDisplay:10.37,2015-08-03 07:06:00,
2015-08-03 03:11:00,70.3,46.2,28.44,ESE,112,0.0,0.0,42,0.00,CLR,SKC,0.00,WeatherDisplay:10.37,2015-08-03 07:11:00,
2015-08-03 03:16:00,70.2,46.6,28.44,ESE,112,0.0,0.0,43,0.00,CLR,SKC,0.00,WeatherDisplay:10.37,2015-08-03 07:16:00,
2015-08-03 03:21:00,70.2,46.0,28.44,ESE,112,0.0,0.0,42,0.00,CLR,SKC,0.00,WeatherDisplay:10.37,2015-08-03 07:21:00,
2015-08-03 03:26:00,70.0,46.5,28.43,ESE,112,0.0,0.0,43,0.00,CLR,SKC,0.00,WeatherDisplay:10.37,2015-08-03 07:26:00,
2015-08-03 03:31:00,70.2,46.6,28.43,East,100,0.0,0.0,43,0.00,CLR,SKC,0.00,WeatherDisplay:10.37,2015-08-03 07:31:00,
2015-08-03 03:36:00,70.0,46.4,28.43,East,90,0.0,0.0,43,0.00,CLR,SKC,0.00,WeatherDisplay:10.37,2015-08-03 07:36:00,
2015-08-03 03:41:00,70.0,46.4,28.43,East,90,0.0,0.0,43,0.00,CLR,SKC,0.00,WeatherDisplay:10.37,2015-08-03 07:41:00,
2015-08-03 03:46:00,69.9,46.4,28.44,East,90,0.0,0.0,43,0.00,CLR,SKC,0.00,WeatherDisplay:10.37,2015-08-03 07:46:00,
2015-08-03 03:51:00,69.8,46.3,28.44,East,90,0.0,0.0,43,0.00,CLR,SKC,0.00,WeatherDisplay:10.37,2015-08-03 07:51:00,
2015-08-03 03:56:00,69.6,46.1,28.43,East,90,0.0,0.0,43,0.00,CLR,SKC,0.00,WeatherDisplay:10.37,2015-08-03 07:56:00,
2015-08-03 04:01:00,69.6,46.1,28.44,East,90,0.0,0.0,43,0.00,CLR,SKC,0.00,WeatherDisplay:10.37,2015-08-03 08:01:00,
2015-08-03 04:06:00,69.6,46.1,28.44,East,90,0.0,0.0,43,0.00,CLR,SKC,0.00,WeatherDisplay:10.37,2015-08-03 08:06:00,
2015-08-03 04:11:00,69.6,46.7,28.44,East,90,0.0,0.0,44,0.00,CLR,SKC,0.00,WeatherDisplay:10.37,2015-08-03 08:11:00,
2015-08-03 04:16:00,69.4,46.0,28.44,East,90,0.0,0.0,43,0.00,CLR,SKC,0.00,WeatherDisplay:10.37,2015-08-03 08:16:00,
2015-08-03 04:21:00,69.4,46.0,28.45,East,90,0.0,0.0,43,0.00,CLR,SKC,0.00,WeatherDisplay:10.37,2015-08-03 08:21:00,
2015-08-03 04:26:00,69.4,46.6,28.45,East,90,0.0,0.0,44,0.00,CLR,SKC,0.00,WeatherDisplay:10.37,2015-08-03 08:26:00,
2015-08-03 04:31:00,69.3,46.4,28.45,East,90,0.0,0.0,44,0.00,CLR,SKC,0.00,WeatherDisplay:10.37,2015-08-03 08:31:00,
2015-08-03 04:36:00,69.3,45.8,28.45,East,90,0.0,0.0,43,0.00,CLR,SKC,0.00,WeatherDisplay:10.37,2015-08-03 08:36:00,
2015-08-03 04:41:00,69.3,45.8,28.45,East,90,0.0,1.0,43,0.00,CLR,SKC,0.00,WeatherDisplay:10.37,2015-08-03 08:41:00,
2015-08-03 04:46:00,69.3,46.4,28.45,East,90,0.0,1.0,44,0.00,CLR,SKC,0.00,WeatherDisplay:10.37,2015-08-03 08:46:00,
2015-08-03 04:51:00,69.1,45.6,28.44,East,90,0.0,1.0,43,0.00,CLR,SKC,0.00,WeatherDisplay:10.37,2015-08-03 08:51:00,
2015-08-03 04:56:00,69.1,45.6,28.45,East,90,0.0,1.0,43,0.00,CLR,SKC,0.00,WeatherDisplay:10.37,2015-08-03 08:56:00,
2015-08-03 05:01:00,69.1,46.2,28.45,SE,141,0.0,1.0,44,0.00,CLR,SKC,0.00,WeatherDisplay:10.37,2015-08-03 09:01:00,
2015-08-03 05:06:00,69.1,46.2,28.45,South,180,0.0,1.0,44,0.00,CLR,SKC,0.00,WeatherDisplay:10.37,2015-08-03 09:06:00,
2015-08-03 05:11:00,69.1,46.8,28.45,South,180,0.0,0.0,45,0.00,CLR,SKC,0.00,WeatherDisplay:10.37,2015-08-03 09:11:00,
2015-08-03 05:16:00,68.9,46.1,28.44,South,180,0.0,0.0,44,0.00,CLR,SKC,0.00,WeatherDisplay:10.37,2015-08-03 09:16:00,
2015-08-03 05:21:00,68.9,46.7,28.44,East,81,0.0,0.0,45,0.00,CLR,SKC,0.00,WeatherDisplay:10.37,2015-08-03 09:21:00,
2015-08-03 05:26:00,68.9,46.7,28.43,NNE,22,0.0,0.0,45,0.00,CLR,SKC,0.00,WeatherDisplay:10.37,2015-08-03 09:26:00,
2015-08-03 05:31:00,68.9,46.1,28.43,NNE,22,0.0,0.0,44,0.00,CLR,SKC,0.00,WeatherDisplay:10.37,2015-08-03 09:31:00,
2015-08-03 05:36:00,68.9,46.7,28.42,NNE,22,0.0,0.0,45,0.00,CLR,SKC,0.00,WeatherDisplay:10.37,2015-08-03 09:36:00,
2015-08-03 05:41:00,68.9,46.1,28.47,NNE,22,0.0,0.0,44,0.00,CLR,SKC,0.00,WeatherDisplay:10.37,2015-08-03 09:41:00,
2015-08-03 05:46:00,68.9,46.1,28.47,NNE,22,0.0,0.0,44,0.00,CLR,SKC,0.00,WeatherDisplay:10.37,2015-08-03 09:46:00,
2015-08-03 05:51:00,68.7,46.5,28.47,NNE,22,0.0,0.0,45,0.00,CLR,SKC,0.00,WeatherDisplay:10.37,2015-08-03 09:51:00,
2015-08-03 05:56:00,68.7,45.9,28.47,NNE,22,0.0,0.0,44,0.00,CLR,SKC,0.00,WeatherDisplay:10.37,2015-08-03 09:56:00,
2015-08-03 06:01:00,68.7,45.9,28.47,NNE,22,0.0,1.0,44,0.00,CLR,SKC,0.00,WeatherDisplay:10.37,2015-08-03 10:01:00,
2015-08-03 06:06:00,68.9,45.5,28.47,NNE,22,0.0,1.0,43,0.00,CLR,SKC,0.00,WeatherDisplay:10.37,2015-08-03 10:06:00,
2015-08-03 06:11:00,68.9,46.1,28.47,NNE,22,0.0,1.0,44,0.00,CLR,SKC,0.00,WeatherDisplay:10.37,2015-08-03 10:11:00,
2015-08-03 06:16:00,69.1,46.2,28.47,SSW,194,1.0,1.0,44,0.00,CLR,SKC,0.00,WeatherDisplay:10.37,2015-08-03 10:16:00,
2015-08-03 06:21:00,69.1,46.3,28.41,SSW,202,0.0,1.0,44,0.00,CLR,SKC,0.00,WeatherDisplay:10.37,2015-08-03 10:21:00,
2015-08-03 06:26:00,69.3,46.4,28.42,WSW,244,1.0,1.0,44,0.00,CLR,SKC,0.00,WeatherDisplay:10.37,2015-08-03 10:26:00,
2015-08-03 06:31:00,69.3,46.4,28.42,North,0,0.0,1.0,44,0.00,CLR,SKC,0.00,WeatherDisplay:10.37,2015-08-03 10:31:00,
2015-08-03 06:36:00,69.1,46.2,28.42,NNW,347,0.0,1.0,44,0.00,CLR,SKC,0.00,WeatherDisplay:10.37,2015-08-03 10:36:00,
2015-08-03 06:41:00,68.9,46.7,28.42,NNW,337,0.0,1.0,45,0.00,CLR,SKC,0.00,WeatherDisplay:10.37,2015-08-03 10:41:00,
2015-08-03 06:46:00,68.9,46.1,28.43,NNW,337,0.0,1.0,44,0.00,CLR,SKC,0.00,WeatherDisplay:10.37,2015-08-03 10:46:00,
2015-08-03 06:51:00,68.8,46.0,28.42,NNW,337,0.0,1.0,44,0.00,CLR,SKC,0.00,WeatherDisplay:10.37,2015-08-03 10:51:00,
2015-08-03 06:56:00,68.7,45.9,28.43,WNW,287,0.0,1.0,44,0.00,CLR,SKC,0.00,WeatherDisplay:10.37,2015-08-03 10:56:00,
2015-08-03 07:01:00,68.7,45.9,28.43,WSW,247,0.0,1.0,44,0.00,CLR,SKC,0.00,WeatherDisplay:10.37,2015-08-03 11:01:00,
2015-08-03 07:06:00,68.7,46.5,28.43,WSW,247,0.0,1.0,45,0.00,CLR,SKC,0.00,WeatherDisplay:10.37,2015-08-03 11:06:00,
2015-08-03 07:11:00,68.7,45.9,28.43,WSW,247,0.0,0.0,44,0.00,CLR,SKC,0.00,WeatherDisplay:10.37,2015-08-03 11:11:00,
2015-08-03 07:16:00,68.7,45.9,28.44,WSW,247,0.0,0.0,44,0.00,CLR,SKC,0.00,WeatherDisplay:10.37,2015-08-03 11:16:00,
2015-08-03 07:21:00,68.5,45.8,28.44,WSW,247,0.0,0.0,44,0.00,CLR,SKC,0.00,WeatherDisplay:10.37,2015-08-03 11:21:00,
2015-08-03 07:26:00,68.5,45.8,28.44,WSW,247,0.0,0.0,44,0.00,CLR,SKC,0.00,WeatherDisplay:10.37,2015-08-03 11:26:00,
2015-08-03 07:31:00,68.5,46.3,28.44,WSW,247,0.0,0.0,45,0.00,CLR,SKC,0.00,WeatherDisplay:10.37,2015-08-03 11:31:00,
2015-08-03 07:36:00,68.4,45.6,28.43,WSW,247,0.0,0.0,44,0.00,CLR,SKC,0.00,WeatherDisplay:10.37,2015-08-03 11:36:00,
2015-08-03 07:41:00,68.4,45.6,28.44,WSW,247,0.0,0.0,44,0.00,CLR,SKC,0.00,WeatherDisplay:10.37,2015-08-03 11:41:00,
2015-08-03 07:46:00,68.4,45.6,28.44,West,272,0.0,0.0,44,0.00,CLR,SKC,0.00,WeatherDisplay:10.37,2015-08-03 11:46:00,
2015-08-03 07:51:00,68.4,45.6,28.44,WNW,292,0.0,0.0,44,0.00,CLR,SKC,0.00,WeatherDisplay:10.37,2015-08-03 11:51:00,
2015-08-03 07:56:00,68.4,45.6,28.45,SW,228,0.0,0.0,44,0.00,CLR,SKC,0.00,WeatherDisplay:10.37,2015-08-03 11:56:00,
2015-08-03 08:01:00,68.4,45.0,28.45,South,180,0.0,0.0,43,0.00,CLR,SKC,0.00,WeatherDisplay:10.37,2015-08-03 12:01:00,
2015-08-03 08:06:00,68.5,45.8,28.45,South,180,0.0,0.0,44,0.00,CLR,SKC,0.00,WeatherDisplay:10.37,2015-08-03 12:06:00,
2015-08-03 08:11:00,68.5,45.1,28.45,South,180,0.0,0.0,43,0.00,CLR,SKC,0.00,WeatherDisplay:10.37,2015-08-03 12:11:00,
2015-08-03 08:16:00,68.7,45.9,28.45,South,180,0.0,0.0,44,0.00,CLR,SKC,0.00,WeatherDisplay:10.37,2015-08-03 12:16:00,
2015-08-03 08:21:00,68.8,46.0,28.45,South,180,0.0,0.0,44,0.00,CLR,SKC,0.00,WeatherDisplay:10.37,2015-08-03 12:21:00,
2015-08-03 08:26:00,68.9,46.1,28.46,South,180,0.0,0.0,44,0.00,CLR,SKC,0.00,WeatherDisplay:10.37,2015-08-03 12:26:00,
2015-08-03 08:31:00,69.1,46.3,28.46,South,180,0.0,0.0,44,0.00,CLR,SKC,0.00,WeatherDisplay:10.37,2015-08-03 12:31:00,
2015-08-03 08:36:00,69.4,46.0,28.47,South,180,0.0,0.0,43,0.00,CLR,SKC,0.00,WeatherDisplay:10.37,2015-08-03 12:36:00,
2015-08-03 08:41:00,69.6,46.7,28.47,South,180,0.0,0.0,44,0.00,CLR,SKC,0.00,WeatherDisplay:10.37,2015-08-03 12:41:00,
2015-08-03 08:46:00,69.6,46.1,28.47,South,180,0.0,0.0,43,0.00,CLR,SKC,0.00,WeatherDisplay:10.37,2015-08-03 12:46:00,
2015-08-03 08:51:00,70.2,47.3,28.47,South,180,0.0,0.0,44,0.00,CLR,SKC,0.00,WeatherDisplay:10.37,2015-08-03 12:51:00,
2015-08-03 08:56:00,70.5,47.5,28.47,SSW,192,0.0,0.0,44,0.00,CLR,SKC,0.00,WeatherDisplay:10.37,2015-08-03 12:56:00,
2015-08-03 09:01:00,70.7,47.7,28.47,SSW,202,0.0,0.0,44,0.00,CLR,SKC,0.00,WeatherDisplay:10.37,2015-08-03 13:01:00,
2015-08-03 09:06:00,71.2,48.8,28.47,SSW,202,1.0,1.0,45,0.00,CLR,SKC,0.00,WeatherDisplay:10.37,2015-08-03 13:06:00,
2015-08-03 09:11:00,71.4,48.4,28.46,SSW,202,1.0,1.0,44,0.00,CLR,SKC,0.00,WeatherDisplay:10.37,2015-08-03 13:11:00,
2015-08-03 09:16:00,71.8,49.3,28.47,NE,37,1.0,1.0,45,0.00,CLR,SKC,0.00,WeatherDisplay:10.37,2015-08-03 13:16:00,
2015-08-03 09:21:00,72.2,49.7,28.47,North,4,0.0,2.0,45,0.00,CLR,SKC,0.00,WeatherDisplay:10.37,2015-08-03 13:21:00,
2015-08-03 09:26:00,72.7,50.1,28.47,North,359,1.0,2.0,45,0.00,CLR,SKC,0.00,WeatherDisplay:10.37,2015-08-03 13:26:00,
2015-08-03 09:31:00,72.9,50.3,28.47,North,0,0.0,2.0,45,0.00,CLR,SKC,0.00,WeatherDisplay:10.37,2015-08-03 13:31:00,
2015-08-03 09:36:00,73.4,50.2,28.47,NNW,344,1.0,2.0,44,0.00,CLR,SKC,0.00,WeatherDisplay:10.37,2015-08-03 13:36:00,
2015-08-03 09:41:00,73.9,50.6,28.47,NNW,337,1.0,2.0,44,0.00,CLR,SKC,0.00,WeatherDisplay:10.37,2015-08-03 13:41:00,
2015-08-03 09:46:00,74.5,51.1,28.48,North,2,2.0,2.0,44,0.00,CLR,SKC,0.00,WeatherDisplay:10.37,2015-08-03 13:46:00,
2015-08-03 09:51:00,75.1,51.7,28.48,NNE,22,5.0,5.0,44,0.00,CLR,SKC,0.00,WeatherDisplay:10.37,2015-08-03 13:51:00,
2015-08-03 09:56:00,75.9,52.4,28.49,WNW,299,2.0,5.0,44,0.00,CLR,SKC,0.00,WeatherDisplay:10.37,2015-08-03 13:56:00,
2015-08-03 10:01:00,76.3,52.8,28.48,SW,225,2.0,5.0,44,0.00,CLR,SKC,0.00,WeatherDisplay:10.37,2015-08-03 14:01:00,
2015-08-03 10:06:00,77.2,53.6,28.49,SW,225,1.0,5.0,44,0.00,CLR,SKC,0.00,WeatherDisplay:10.37,2015-08-03 14:06:00,
2015-08-03 10:11:00,77.8,54.1,28.49,SW,225,3.0,4.0,44,0.00,CLR,SKC,0.00,WeatherDisplay:10.37,2015-08-03 14:11:00,
2015-08-03 10:16:00,78.6,54.9,28.49,South,186,3.0,4.0,44,0.00,CLR,SKC,0.00,WeatherDisplay:10.37,2015-08-03 14:16:00,
2015-08-03 10:21:00,78.8,54.4,28.50,SSE,157,1.0,4.0,43,0.00,CLR,SKC,0.00,WeatherDisplay:10.37,2015-08-03 14:21:00,
2015-08-03 10:26:00,80.1,56.2,28.50,SSW,194,2.0,4.0,44,0.00,CLR,SKC,0.00,WeatherDisplay:10.37,2015-08-03 14:26:00,
2015-08-03 10:31:00,80.1,55.5,28.50,SW,223,2.0,4.0,43,0.00,CLR,SKC,0.00,WeatherDisplay:10.37,2015-08-03 14:31:00,
2015-08-03 10:36:00,80.1,56.2,28.49,SW,225,2.0,4.0,44,0.00,CLR,SKC,0.00,WeatherDisplay:10.37,2015-08-03 14:36:00,
2015-08-03 10:41:00,80.1,55.5,28.49,SW,225,2.0,4.0,43,0.00,CLR,SKC,0.00,WeatherDisplay:10.37,2015-08-03 14:41:00,
2015-08-03 10:46:00,80.1,56.2,28.50,SW,225,2.0,4.0,44,0.00,CLR,SKC,0.00,WeatherDisplay:10.37,2015-08-03 14:46:00,
2015-08-03 10:51:00,83.4,58.5,28.50,SW,225,3.0,4.0,43,0.00,CLR,SKC,0.00,WeatherDisplay:10.37,2015-08-03 14:51:00,
2015-08-03 10:56:00,83.7,58.8,28.49,SSW,203,2.0,4.0,43,0.00,CLR,SKC,0.00,WeatherDisplay:10.37,2015-08-03 14:56:00,
2015-08-03 11:01:00,84.4,60.1,28.49,South,180,2.0,4.0,44,0.00,CLR,SKC,0.00,WeatherDisplay:10.37,2015-08-03 15:01:00,
2015-08-03 11:06:00,84.6,59.6,28.49,South,188,0.0,4.0,43,0.00,CLR,SKC,0.00,WeatherDisplay:10.37,2015-08-03 15:06:00,
2015-08-03 11:11:00,85.5,60.4,28.49,SSW,202,1.0,4.0,43,0.00,CLR,SKC,0.00,WeatherDisplay:10.37,2015-08-03 15:11:00,
2015-08-03 11:16:00,86.4,61.9,28.48,SSW,202,1.0,3.0,44,0.00,CLR,SKC,0.00,WeatherDisplay:10.37,2015-08-03 15:16:00,
2015-08-03 11:21:00,86.8,61.6,28.48,SW,228,1.0,3.0,43,0.00,CLR,SKC,0.00,WeatherDisplay:10.37,2015-08-03 15:21:00,
2015-08-03 11:26:00,87.4,62.2,28.47,WSW,237,1.0,3.0,43,0.00,CLR,SKC,0.00,WeatherDisplay:10.37,2015-08-03 15:26:00,
2015-08-03 11:31:00,88.2,62.8,28.46,SSW,209,1.0,6.0,43,0.00,CLR,SKC,0.00,WeatherDisplay:10.37,2015-08-03 15:31:00,
2015-08-03 11:36:00,88.9,63.5,28.47,South,175,3.0,6.0,43,0.00,CLR,SKC,0.00,WeatherDisplay:10.37,2015-08-03 15:36:00,
2015-08-03 11:41:00,89.2,63.8,28.46,South,173,2.0,6.0,43,0.00,CLR,SKC,0.00,WeatherDisplay:10.37,2015-08-03 15:41:00,